Flag for U.S.A. Weather past 2 weeks in New Orleans, Louisiana, U.S.A.

Now
82 °F

Mostly cloudy.


Feels Like: 89 °F
Forecast: 76 / 87 °F
Wind: 6 mph from Southeast

Location: Lakefront Airport

Current Time: Sep 3, 2015 at 10:17:50 AM

Latest Report: Sep 3, 2015 at 9:53 AM


Visibility: 10 mi

Pressure: 29.99 "Hg

Humidity: 79%

Dew point: 75 °F

Location of New OrleansLocation

Historic Weather in New Orleans — Graph

°F

New Orleans temperature yesterday

Maximum temperature yesterday: 85 °F (at 9:53 AM)
Minimum temperature yesterday: 78 °F (at 1:53 PM)
Average temperature yesterday: 81 °F

Past Weeks' High & Low Weather Summary

 TemperatureHumidityPressure
High92 °F (Aug 24, 2:53 PM)94% (Aug 19, 2:00 PM)30.08 "Hg (Aug 19, 2:00 PM)
Low75 °F (Aug 26, 6:53 AM)33% (Aug 25, 7:53 PM)29.87 "Hg (Aug 19, 4:53 PM)
Average83 °F68%29.99 "Hg
* Reported Aug 19 8:53 AM — Sep 3 8:53 AM, New Orleans, Weather by CustomWeather, © 2015

Note: Actual official high and low records may vary slightly from our data, if they occured in-between our weather recording intervals... More about our weather records

Advertising

New Orleans weather history for previous 24 hours

 ConditionsComfort  
Time TempWeatherWind HumidityBarometerVisibility
8:53 AM
Thu, Sep 3
82 °FPassing clouds.8 mph82%29.98 "Hg10 mi
7:53 AM80 °FScattered clouds.9 mph87%29.98 "Hg10 mi
6:53 AM80 °FPassing clouds.5 mph85%29.97 "Hg10 mi
5:53 AM79 °FClear.No wind84%29.97 "Hg10 mi
4:53 AM79 °FClear.5 mph84%29.96 "Hg10 mi
3:53 AM78 °FClear.3 mph84%29.94 "Hg10 mi
2:53 AM78 °FClear.3 mph87%29.94 "Hg10 mi
1:53 AM78 °FClear.6 mph84%29.95 "Hg10 mi
12:53 AM78 °FClear.No wind82%29.97 "Hg10 mi
11:53 PM
Wed, Sep 2
78 °FClear.3 mph82%29.98 "Hg10 mi
10:53 PM78 °FClear.6 mph79%29.99 "Hg10 mi
9:53 PM79 °FClear.5 mph79%29.99 "Hg10 mi
8:53 PM80 °FClear.No wind74%29.98 "Hg10 mi
7:53 PM80 °FSunny.No wind74%29.97 "Hg10 mi
6:53 PM80 °FSunny.No wind74%29.97 "Hg10 mi
5:53 PM81 °FSunny.8 mph74%29.98 "Hg10 mi
4:53 PM82 °FScattered clouds.7 mph70%29.99 "Hg10 mi
3:53 PM83 °FPartly sunny.7 mph68%30.01 "Hg10 mi
2:53 PM80 °FSunny.5 mph81%30.03 "Hg10 mi
1:53 PM78 °FLight rain. Broken clouds.9 mph87%30.06 "Hg10 mi
12:53 PM82 °FLight rain. Partly sunny.8 mph82%30.06 "Hg7 mi
11:53 AM84 °FOvercast.9 mph65%30.07 "Hg10 mi
10:53 AM84 °FPassing clouds.8 mph74%30.06 "Hg10 mi
Weather by CustomWeather, © 2015

See weather overviewHow to use our weather pages